QZS-2 (MICHIBIKI-2) (42738 NORAD) Tracking and Keplerian Element Data

This shows tracking and keplerian element data for the satellite.

Feedback or suggestion? Click here.




ElementValue
Catalog42738
NameQZS-2 (MICHIBIKI-2)
Epoch Orbit1040
Epoch Day92.82425209
Epoch Year2020
RAAN275.4833
Inclination43.1202
Eccentricity0.0745103
Argument of Perigee270.4479
Mean Anonmoly81.1239
Mean Motion1.00261566
Decay Rate-1.44E-06
L11 42738U 17028A 20092.82425209 -.00000144 00000-0 00000+0 0 9996
L22 42738 43.1202 275.4833 0745103 270.4479 81.1239 1.00261566 10409

Live tracking and technical data element details for QZS-2 (MICHIBIKI-2) (NORAD 42738). QZS-2 (MICHIBIKI-2) can be tracked NOW for your location showing map with azimuth and elevation plus other details from your city location.

Track the satellite on the map from your city or location and see movement details for azimuth, elevation, latitude, longitude, range, height, and movement on the map or in text.







IsCatalogInMostPopularTable: catalog: 42738, numindb: 434
Update: records affected: 1



GetName: 42738 QZS-2 (MICHIBIKI-2)

Hit Count: updated at: Thu, 09 Apr 2020 17:45:12 GMT